Location: Bremen
(53.0793°N, 8.8017°E)
Time: 00:57:18
(UTC+01:00)

Vanguard 1 Rocket - Visible Passes

Search period start: 28 November 2021 00:00
Search period end: 08 December 2021 00:00
Orbit: 650 x 4226 km, 34.3° (Epoch: 27 November)

Date Brightness Start Highest point End Pass type
(mag) Time Alt. Az. Time Alt. Az. Time Alt. Az.
28 Nov 10.8 02:24:16 17° SSE 02:28:06 19° SE 02:39:44 10° E visible
28 Nov 10.6 04:41:34 17° SSW 04:53:01 39° SSE 05:14:06 10° E visible
28 Nov 11.0 07:03:25 10° WSW 07:21:08 45° S 07:44:28 10° SE visible
29 Nov 10.5 03:34:30 24° S 03:40:52 31° SSE 03:58:31 10° E visible
29 Nov 10.8 05:52:02 10° WSW 06:07:38 44° S 06:30:29 10° ESE visible
30 Nov 10.7 02:27:25 21° SE 02:29:30 22° SE 02:42:11 10° E visible
30 Nov 10.5 04:44:42 21° SW 04:54:41 40° SSE 05:15:41 10° ESE visible
30 Nov 11.0 07:05:47 10° WSW 07:22:46 42° S 07:45:42 10° SE visible
01 Dec 11.1 01:20:17 12° ESE 01:20:17 12° ESE 01:23:34 10° ESE visible
01 Dec 10.3 03:37:34 28° S 03:42:29 33° SSE 04:00:17 10° E visible
01 Dec 10.7 05:54:51 11° WSW 06:09:22 43° S 06:31:50 10° ESE visible
02 Dec 10.6 02:30:24 24° SE 02:31:03 24° SE 02:44:20 10° E visible
02 Dec 10.3 04:47:42 24° SW 04:56:28 40° SSE 05:17:10 10° ESE visible
02 Dec 10.9 07:08:16 10° WSW 07:24:26 40° SSW 07:46:43 10° SE visible
03 Dec 11.0 01:23:13 13° ESE 01:23:13 13° ESE 01:27:14 10° ESE visible
03 Dec 10.2 03:40:30 31° S 03:44:14 35° SSE 04:01:56 10° ESE visible
03 Dec 10.6 05:57:47 13° WSW 06:11:10 41° S 06:33:02 10° SE visible
04 Dec 10.5 02:33:18 26° SE 02:33:18 26° SE 02:46:19 10° E visible
04 Dec 10.2 04:50:34 26° SW 04:58:20 40° S 05:18:32 10° ESE visible
04 Dec 10.9 07:10:51 10° WSW 07:26:08 36° SSW 07:47:26 10° SE visible
05 Dec 10.9 01:26:04 15° ESE 01:26:04 15° ESE 01:30:04 10° ESE visible
05 Dec 10.1 03:43:21 33° S 03:46:07 35° SSE 04:03:29 10° ESE visible
05 Dec 10.6 06:00:38 14° WSW 06:13:01 39° S 06:34:02 10° SE visible
06 Dec 10.4 02:36:07 27° SE 02:36:07 27° SE 02:48:10 10° ESE visible
06 Dec 10.1 04:53:23 27° SW 05:00:17 39° S 05:19:46 10° ESE visible
06 Dec 10.9 07:13:36 10° WSW 07:27:53 32° SSW 07:47:50 10° SSE visible
07 Dec 10.9 01:28:51 15° ESE 01:28:51 15° ESE 01:32:29 10° ESE visible
07 Dec 10.0 03:46:09 34° S 03:48:05 35° SSE 04:04:57 10° ESE visible
07 Dec 10.5 06:03:25 14° WSW 06:14:55 35° SSW 06:34:49 10° SE visible
